Weather History for Gallup, NM

Change the Weather History Date:

Tuesday, November 20, 2012

  Actual Average Record
Temperature  
Mean Temperature 39 °F -  
Max Temperature 62 °F 50 °F 69 °F (1989)
Min Temperature 16 °F 17 °F 5 °F (1985)
Degree Days  
Heating Degree Days 26    
Moisture  
Dew Point 14 °F    
Average Humidity 50    
Maximum Humidity 81    
Minimum Humidity 14    
Precipitation  
Precipitation 0.00 in - - ()
Sea Level Pressure  
Sea Level Pressure 30.35 in    
Wind  
Wind Speed 1 mph (NNE)    
Max Wind Speed 6 mph    
Max Gust Speed -    
Visibility 10 miles    
Events      
Averages and records for this station are not official NWS values.
T = Trace of Precipitation, MM = Missing Value Source: NWS Daily Summary

Daily Weather History Graph

Daily Weather History Graph

Search for Another Location

Airport:

Trip Planner

Search our weather history database for the weather conditions in past years. The results will help you decide how hot, cold, wet, or windy it might be!

Date:

Astronomy

Nov. 20, 2012 Rise Set
Actual Time 6:56 AM MST 5:05 PM MST
Civil Twilight 6:28 AM MST 5:32 PM MST
Nautical Twilight 5:57 AM MST 6:03 PM MST
Astronomical Twilight 5:27 AM MST 6:34 PM MST
Moon 12:39 PM MST (11/20) No Moon Set
Length of Visible Light 11h 04m
Length of Day
10h 09m
First Quarter, 52% of the Moon is Illuminated
Nov 20
First Quarter
Nov 28
Full
Dec 6
Last Quarter
Dec 13
New
Dec 19
First Quarter

Hourly Weather History & Observations

Time (MST) Temp. Windchill Dew Point Humidity Pressure Visibility Wind Dir Wind Speed Gust Speed Precip Events Conditions
1:53 AM 19.9 °F 13.4 °F 12.9 °F 74% 30.36 in 10.0 mi ENE 4.6 mph - N/A   Clear
2:53 AM 21.0 °F - 14.0 °F 74% 30.34 in 10.0 mi Calm Calm - N/A   Clear
3:53 AM 18.0 °F - 12.0 °F 78% 30.36 in 10.0 mi Calm Calm - N/A   Clear
4:53 AM 18.0 °F - 12.0 °F 78% 30.39 in 10.0 mi Calm Calm - N/A   Clear
5:53 AM 16.0 °F - 10.9 °F 81% 30.47 in 10.0 mi Calm Calm - N/A   Clear
6:53 AM 16.0 °F - 10.9 °F 81% 30.53 in 10.0 mi Calm Calm - N/A   Clear
7:53 AM 21.0 °F - 15.1 °F 78% 30.52 in 10.0 mi Calm Calm - N/A   Clear
8:53 AM 30.0 °F - 18.0 °F 61% 30.52 in 10.0 mi Calm Calm - N/A   Clear
9:53 AM 37.0 °F - 21.0 °F 52% 30.47 in 10.0 mi Calm Calm - N/A   Clear
10:53 AM 45.0 °F 43.5 °F 21.0 °F 39% 30.36 in 10.0 mi Variable 3.5 mph - N/A   Clear
11:53 AM 53.1 °F - 18.0 °F 25% 30.32 in 10.0 mi West 3.5 mph - N/A   Clear
12:53 PM 57.9 °F - 12.0 °F 16% 30.22 in 10.0 mi Calm Calm - N/A   Clear
1:53 PM 60.1 °F - 14.0 °F 16% 30.20 in 10.0 mi Calm Calm - N/A   Clear
2:53 PM 62.1 °F - 12.0 °F 14% 30.16 in 10.0 mi Calm Calm - N/A   Clear
3:53 PM 62.1 °F - 12.0 °F 14% 30.19 in 10.0 mi North 4.6 mph - N/A   Clear
4:53 PM 55.0 °F - 15.1 °F 21% 30.23 in 10.0 mi NNE 5.8 mph - N/A   Clear
5:53 PM 45.0 °F 43.5 °F 12.9 °F 27% 30.33 in 10.0 mi ENE 3.5 mph - N/A   Clear
6:53 PM 37.9 °F - 15.1 °F 39% 30.39 in 10.0 mi Calm Calm - N/A   Clear
7:53 PM 30.9 °F - 12.9 °F 47% 30.43 in 10.0 mi Calm Calm - N/A   Clear
8:53 PM 30.0 °F - 14.0 °F 51% 30.37 in 10.0 mi Calm Calm - N/A   Clear
9:53 PM 25.0 °F - 14.0 °F 63% 30.35 in 10.0 mi Calm Calm - N/A   Clear
10:53 PM 28.9 °F - 14.0 °F 54% 30.26 in 10.0 mi Calm Calm - N/A   Clear
11:53 PM 25.0 °F - 12.0 °F 58% 30.23 in 10.0 mi Calm Calm - N/A   Clear